Time,TemperatureF,DewpointF,PressureIn,WindDirection,WindDirectionDegrees,WindSpeedMPH,WindSpeedGustMPH,Humidity,HourlyPrecipIn,Conditions,Clouds,dailyrainin,SolarRadiationWatts/m^2,SoftwareType,DateUTC
2013-05-04 00:21:00,39.0,4.0,-100.00,ENE,76,4.0,5.0,23,0.00,,,0.00,1.000000,,2013-05-04 06:21:00,
2013-05-04 00:32:00,39.0,4.0,-100.00,ENE,76,4.0,5.0,23,0.00,,,0.00,1.000000,,2013-05-04 06:32:00,
2013-05-04 00:41:00,39.0,4.0,-100.00,ENE,76,4.0,5.0,23,0.00,,,0.00,1.000000,,2013-05-04 06:41:00,
2013-05-04 00:52:00,39.0,4.0,-100.00,ENE,76,4.0,5.0,23,0.00,,,0.00,1.000000,,2013-05-04 06:52:00,
2013-05-04 01:21:00,38.0,7.0,-100.00,ESE,117,5.0,6.0,27,0.00,,,0.00,0.000000,,2013-05-04 07:21:00,
2013-05-04 01:32:00,38.0,7.0,-100.00,ESE,117,5.0,6.0,27,0.00,,,0.00,0.000000,,2013-05-04 07:32:00,
2013-05-04 01:41:00,38.0,7.0,-100.00,ESE,117,5.0,6.0,27,0.00,,,0.00,0.000000,,2013-05-04 07:41:00,
2013-05-04 01:52:00,38.0,7.0,-100.00,ESE,117,5.0,6.0,27,0.00,,,0.00,0.000000,,2013-05-04 07:52:00,
2013-05-04 02:21:00,37.0,7.0,-100.00,SSE,150,4.0,6.0,28,0.00,,,0.00,0.000000,,2013-05-04 08:21:00,
2013-05-04 02:31:00,37.0,7.0,-100.00,SSE,150,4.0,6.0,28,0.00,,,0.00,0.000000,,2013-05-04 08:31:00,
2013-05-04 02:41:00,37.0,7.0,-100.00,SSE,150,4.0,6.0,28,0.00,,,0.00,0.000000,,2013-05-04 08:41:00,
2013-05-04 02:52:00,37.0,7.0,-100.00,SSE,150,4.0,6.0,28,0.00,,,0.00,0.000000,,2013-05-04 08:52:00,
2013-05-04 03:21:00,35.0,7.0,-100.00,SSE,148,3.0,5.0,31,0.00,,,0.00,0.000000,,2013-05-04 09:21:00,
2013-05-04 03:32:00,35.0,7.0,-100.00,SSE,148,3.0,5.0,31,0.00,,,0.00,0.000000,,2013-05-04 09:32:00,
2013-05-04 03:42:00,35.0,7.0,-100.00,SSE,148,3.0,5.0,31,0.00,,,0.00,0.000000,,2013-05-04 09:42:00,
2013-05-04 03:52:00,35.0,7.0,-100.00,SSE,148,3.0,5.0,31,0.00,,,0.00,0.000000,,2013-05-04 09:52:00,
2013-05-04 04:22:00,36.0,8.0,-100.00,SSE,165,3.0,4.0,31,0.00,,,0.00,0.000000,,2013-05-04 10:22:00,
2013-05-04 04:33:00,36.0,8.0,-100.00,SSE,165,3.0,4.0,31,0.00,,,0.00,0.000000,,2013-05-04 10:33:00,
2013-05-04 04:42:00,36.0,8.0,-100.00,SSE,165,3.0,4.0,31,0.00,,,0.00,0.000000,,2013-05-04 10:42:00,
2013-05-04 04:52:00,36.0,8.0,-100.00,SSE,165,3.0,4.0,31,0.00,,,0.00,0.000000,,2013-05-04 10:52:00,
2013-05-04 05:21:00,34.0,8.0,-100.00,South,174,2.0,4.0,33,0.00,,,0.00,0.000000,,2013-05-04 11:21:00,
2013-05-04 05:32:00,34.0,8.0,-100.00,South,174,2.0,4.0,33,0.00,,,0.00,0.000000,,2013-05-04 11:32:00,
2013-05-04 05:53:00,34.0,8.0,-100.00,South,174,2.0,4.0,33,0.00,,,0.00,0.000000,,2013-05-04 11:53:00,
2013-05-04 06:26:00,36.0,9.0,-100.00,SE,135,4.0,5.0,32,0.00,,,0.00,1.000000,,2013-05-04 12:26:00,
2013-05-04 06:41:00,36.0,9.0,-100.00,SE,135,4.0,5.0,32,0.00,,,0.00,1.000000,,2013-05-04 12:41:00,
2013-05-04 06:51:00,36.0,9.0,-100.00,SE,135,4.0,5.0,32,0.00,,,0.00,1.000000,,2013-05-04 12:51:00,
2013-05-04 07:21:00,39.0,9.0,-100.00,SE,139,4.0,5.0,29,0.00,,,0.00,37.000000,,2013-05-04 13:21:00,
2013-05-04 07:32:00,39.0,9.0,-100.00,SE,139,4.0,5.0,29,0.00,,,0.00,37.000000,,2013-05-04 13:32:00,
2013-05-04 08:21:00,42.0,11.0,-100.00,SSE,152,6.0,8.0,28,0.00,,,0.00,222.000000,,2013-05-04 14:21:00,
2013-05-04 08:41:00,42.0,11.0,-100.00,SSE,152,6.0,8.0,28,0.00,,,0.00,222.000000,,2013-05-04 14:41:00,
2013-05-04 08:51:00,42.0,11.0,-100.00,SSE,152,6.0,8.0,28,0.00,,,0.00,222.000000,,2013-05-04 14:51:00,
2013-05-04 09:21:00,43.0,11.0,-100.00,SSE,156,8.0,11.0,27,0.00,,,0.00,434.000000,,2013-05-04 15:21:00,
2013-05-04 09:33:00,43.0,11.0,-100.00,SSE,156,8.0,11.0,27,0.00,,,0.00,434.000000,,2013-05-04 15:33:00,
2013-05-04 09:43:00,43.0,11.0,-100.00,SSE,156,8.0,11.0,27,0.00,,,0.00,434.000000,,2013-05-04 15:43:00,
2013-05-04 09:52:00,43.0,11.0,-100.00,SSE,156,8.0,11.0,27,0.00,,,0.00,434.000000,,2013-05-04 15:52:00,
2013-05-04 10:22:00,46.0,11.0,-100.00,SSE,155,8.0,11.0,24,0.00,,,0.00,616.000000,,2013-05-04 16:22:00,
2013-05-04 10:33:00,46.0,11.0,-100.00,SSE,155,8.0,11.0,24,0.00,,,0.00,616.000000,,2013-05-04 16:33:00,
2013-05-04 10:42:00,46.0,11.0,-100.00,SSE,155,8.0,11.0,24,0.00,,,0.00,616.000000,,2013-05-04 16:42:00,
2013-05-04 10:52:00,46.0,11.0,-100.00,SSE,155,8.0,11.0,24,0.00,,,0.00,616.000000,,2013-05-04 16:52:00,
2013-05-04 11:22:00,48.0,12.0,-100.00,SSE,167,9.0,13.0,23,0.00,,,0.00,778.000000,,2013-05-04 17:22:00,
2013-05-04 11:32:00,48.0,12.0,-100.00,SSE,167,9.0,13.0,23,0.00,,,0.00,778.000000,,2013-05-04 17:32:00,
2013-05-04 11:42:00,48.0,12.0,-100.00,SSE,167,9.0,13.0,23,0.00,,,0.00,778.000000,,2013-05-04 17:42:00,
2013-05-04 11:52:00,48.0,12.0,-100.00,SSE,167,9.0,13.0,23,0.00,,,0.00,778.000000,,2013-05-04 17:52:00,
2013-05-04 12:21:00,55.0,11.0,-100.00,WSW,237,4.0,13.0,17,0.00,,,0.00,892.000000,,2013-05-04 18:21:00,
2013-05-04 12:32:00,55.0,11.0,-100.00,WSW,237,4.0,13.0,17,0.00,,,0.00,892.000000,,2013-05-04 18:32:00,
2013-05-04 12:42:00,55.0,11.0,-100.00,WSW,237,4.0,13.0,17,0.00,,,0.00,892.000000,,2013-05-04 18:42:00,
2013-05-04 12:52:00,55.0,11.0,-100.00,WSW,237,4.0,13.0,17,0.00,,,0.00,892.000000,,2013-05-04 18:52:00,
2013-05-04 13:21:00,51.0,9.0,-100.00,SE,135,7.0,16.0,18,0.00,,,0.00,943.000000,,2013-05-04 19:21:00,
2013-05-04 13:31:00,51.0,9.0,-100.00,SE,135,7.0,16.0,18,0.00,,,0.00,943.000000,,2013-05-04 19:31:00,
2013-05-04 13:42:00,51.0,9.0,-100.00,SE,135,7.0,16.0,18,0.00,,,0.00,943.000000,,2013-05-04 19:42:00,
2013-05-04 13:52:00,51.0,9.0,-100.00,SE,135,7.0,16.0,18,0.00,,,0.00,943.000000,,2013-05-04 19:52:00,
2013-05-04 14:21:00,55.0,10.0,-100.00,SSE,160,4.0,19.0,16,0.00,,,0.00,976.000000,,2013-05-04 20:21:00,
2013-05-04 14:32:00,55.0,10.0,-100.00,SSE,160,4.0,19.0,16,0.00,,,0.00,976.000000,,2013-05-04 20:32:00,
2013-05-04 14:42:00,55.0,10.0,-100.00,SSE,160,4.0,19.0,16,0.00,,,0.00,976.000000,,2013-05-04 20:42:00,
2013-05-04 14:51:00,55.0,10.0,-100.00,SSE,160,4.0,19.0,16,0.00,,,0.00,976.000000,,2013-05-04 20:51:00,
2013-05-04 15:22:00,50.0,8.0,-100.00,South,173,7.0,17.0,18,0.00,,,0.00,503.000000,,2013-05-04 21:22:00,
2013-05-04 15:33:00,50.0,8.0,-100.00,South,173,7.0,17.0,18,0.00,,,0.00,503.000000,,2013-05-04 21:33:00,
2013-05-04 15:43:00,50.0,8.0,-100.00,South,173,7.0,17.0,18,0.00,,,0.00,503.000000,,2013-05-04 21:43:00,
2013-05-04 15:52:00,50.0,8.0,-100.00,South,173,7.0,17.0,18,0.00,,,0.00,503.000000,,2013-05-04 21:52:00,
2013-05-04 16:22:00,49.0,7.0,-100.00,SW,218,10.0,18.0,18,0.00,,,0.00,399.000000,,2013-05-04 22:22:00,
2013-05-04 16:32:00,49.0,7.0,-100.00,SW,218,10.0,18.0,18,0.00,,,0.00,399.000000,,2013-05-04 22:32:00,
2013-05-04 16:42:00,49.0,7.0,-100.00,SW,218,10.0,18.0,18,0.00,,,0.00,399.000000,,2013-05-04 22:42:00,
2013-05-04 16:52:00,49.0,7.0,-100.00,SW,218,10.0,18.0,18,0.00,,,0.00,399.000000,,2013-05-04 22:52:00,
2013-05-04 17:21:00,49.0,9.0,-100.00,SW,218,5.0,16.0,19,0.00,,,-99.99,341.000000,,2013-05-04 23:21:00,
2013-05-04 17:32:00,49.0,9.0,-100.00,SW,218,5.0,16.0,19,0.00,,,-99.99,341.000000,,2013-05-04 23:32:00,
2013-05-04 17:42:00,49.0,9.0,-100.00,SW,218,5.0,16.0,19,0.00,,,-99.99,341.000000,,2013-05-04 23:42:00,
2013-05-04 17:52:00,49.0,9.0,-100.00,SW,218,5.0,16.0,19,0.00,,,-99.99,341.000000,,2013-05-04 23:52:00,
2013-05-04 18:21:00,47.0,12.0,-100.00,South,170,8.0,15.0,24,0.00,,,0.00,192.000000,,2013-05-05 00:21:00,
2013-05-04 18:31:00,47.0,12.0,-100.00,South,170,8.0,15.0,24,0.00,,,0.00,192.000000,,2013-05-05 00:31:00,
2013-05-04 18:42:00,47.0,12.0,-100.00,South,170,8.0,15.0,24,0.00,,,0.00,192.000000,,2013-05-05 00:42:00,
2013-05-04 18:51:00,47.0,12.0,-100.00,South,170,8.0,15.0,24,0.00,,,0.00,192.000000,,2013-05-05 00:51:00,
2013-05-04 19:21:00,45.0,12.0,-100.00,NW,322,7.0,19.0,26,0.00,,,0.00,88.000000,,2013-05-05 01:21:00,
2013-05-04 19:32:00,45.0,12.0,-100.00,NW,322,7.0,19.0,26,0.00,,,0.00,88.000000,,2013-05-05 01:32:00,
2013-05-04 19:42:00,45.0,12.0,-100.00,NW,322,7.0,19.0,26,0.00,,,0.00,88.000000,,2013-05-05 01:42:00,
2013-05-04 19:52:00,45.0,12.0,-100.00,NW,322,7.0,19.0,26,0.00,,,0.00,88.000000,,2013-05-05 01:52:00,
2013-05-04 20:21:00,44.0,15.0,-100.00,NNE,13,7.0,12.0,30,0.00,,,0.00,29.000000,,2013-05-05 02:21:00,
2013-05-04 20:31:00,44.0,15.0,-100.00,NNE,13,7.0,12.0,30,0.00,,,0.00,29.000000,,2013-05-05 02:31:00,
2013-05-04 20:42:00,44.0,15.0,-100.00,NNE,13,7.0,12.0,30,0.00,,,0.00,29.000000,,2013-05-05 02:42:00,
2013-05-04 20:52:00,44.0,15.0,-100.00,NNE,13,7.0,12.0,30,0.00,,,0.00,29.000000,,2013-05-05 02:52:00,
2013-05-04 21:21:00,44.0,14.0,-100.00,NE,47,5.0,12.0,29,0.00,,,0.00,1.000000,,2013-05-05 03:21:00,
2013-05-04 21:32:00,44.0,14.0,-100.00,NE,47,5.0,12.0,29,0.00,,,0.00,1.000000,,2013-05-05 03:32:00,
2013-05-04 21:42:00,44.0,14.0,-100.00,NE,47,5.0,12.0,29,0.00,,,0.00,1.000000,,2013-05-05 03:42:00,
2013-05-04 21:52:00,44.0,14.0,-100.00,NE,47,5.0,12.0,29,0.00,,,0.00,1.000000,,2013-05-05 03:52:00,
2013-05-04 22:22:00,42.0,18.0,-100.00,East,79,9.0,15.0,37,0.00,,,0.00,0.000000,,2013-05-05 04:22:00,
2013-05-04 22:32:00,42.0,18.0,-100.00,East,79,9.0,15.0,37,0.00,,,0.00,0.000000,,2013-05-05 04:32:00,
2013-05-04 22:43:00,42.0,18.0,-100.00,East,79,9.0,15.0,37,0.00,,,0.00,0.000000,,2013-05-05 04:43:00,
2013-05-04 22:52:00,42.0,18.0,-100.00,East,79,9.0,15.0,37,0.00,,,0.00,0.000000,,2013-05-05 04:52:00,
2013-05-04 23:21:00,39.0,20.0,-100.00,East,85,9.0,21.0,47,0.00,,,0.00,0.000000,,2013-05-05 05:21:00,
2013-05-04 23:31:00,39.0,20.0,-100.00,East,85,9.0,21.0,47,0.00,,,0.00,0.000000,,2013-05-05 05:31:00,
2013-05-04 23:42:00,39.0,20.0,-100.00,East,85,9.0,21.0,47,0.00,,,0.00,0.000000,,2013-05-05 05:42:00,
2013-05-04 23:51:00,39.0,20.0,-100.00,East,85,9.0,21.0,47,0.00,,,0.00,0.000000,,2013-05-05 05:51:00,